Flag for U.S.A. Weather past 2 weeks in Tallahassee, Florida, U.S.A.

Now
91 °F

Partly sunny.


Feels Like: 98 °F
Forecast: 73 / 90 °F
Wind: 6 mph from North

Location: Tallahassee Regional Airport

Current Time: Jul 24, 2014 at 2:16:33 PM

Latest Report: Jul 24, 2014 at 12:53 PM


Visibility: 10 mi

Pressure: 30.02 "Hg

Humidity: 52%

Dew point: 71 °F

Location of TallahasseeLocation

Historic Weather in Tallahassee — Graph

°F

Tallahassee temperature yesterday

Maximum temperature yesterday: 91 °F (at 12:53 PM)
Minimum temperature yesterday: 71 °F (at 5:53 AM)
Average temperature yesterday: 81 °F

Past Weeks' High & Low Weather Summary

 TemperatureHumidityPressure
High96 °F (Jul 14, 2:53 PM)98% (Jul 21, 10:53 PM)30.16 "Hg (Jul 21, 10:53 PM)
Low69 °F (Jul 18, 5:53 AM)29% (Jul 17, 3:53 PM)29.85 "Hg (Jul 16, 6:53 PM)
Average80 °F75%30.04 "Hg
* Reported Jul 9 12:53 PM — Jul 24 12:53 PM, Tallahassee, Weather by CustomWeather, © 2014

Note: Actual official high and low records may vary slightly from our data, if they occured in-between our weather recording intervals... More about our weather records

Advertising

Tallahassee weather history for previous 24 hours

 ConditionsComfort  
Time TempWeatherWind HumidityBarometerVisibility
12:53 PM
Jul 24
91 °FPartly sunny.6 mph52%30.02 "Hg10 mi
11:53 AM87 °FPartly sunny.7 mph60%30.03 "Hg10 mi
10:53 AM85 °FPartly sunny.7 mph71%30.03 "Hg10 mi
9:53 AM84 °FPassing clouds.7 mph70%30.03 "Hg10 mi
8:53 AM78 °FSunny.No wind84%30.04 "Hg10 mi
7:53 AM74 °FFog.No wind91%30.03 "Hg1 mi
6:53 AM72 °FFog.No wind91%30.01 "Hg1 mi
5:53 AM72 °FFog.No wind91%30.00 "Hg6 mi
4:53 AM73 °FClear.No wind90%29.99 "Hg8 mi
3:53 AM73 °FClear.No wind90%29.99 "Hg10 mi
2:53 AM74 °FClear.No wind91%30.00 "Hg9 mi
1:53 AM75 °FClear.No wind90%30.01 "Hg10 mi
12:53 AM76 °FClear.N/A88%30.03 "Hg10 mi
11:53 PM
Jul 23
77 °FClear.No wind85%30.03 "Hg10 mi
10:53 PM78 °FPassing clouds.No wind82%30.01 "Hg10 mi
9:53 PM78 °FPassing clouds.No wind82%30.00 "Hg10 mi
8:53 PM81 °FPartly sunny.No wind74%29.98 "Hg10 mi
7:53 PM83 °FScattered clouds.5 mph68%29.99 "Hg10 mi
6:53 PM86 °FScattered clouds.9 mph59%30.00 "Hg10 mi
5:53 PM85 °FScattered clouds.6 mph63%30.01 "Hg10 mi
4:53 PM85 °FBroken clouds.9 mph68%30.03 "Hg10 mi
3:53 PM79 °FThunderstorms. Partly sunny.3 mph90%30.05 "Hg9 mi
2:53 PM91 °FPartly sunny.3 mph45%30.03 "Hg10 mi
Weather by CustomWeather, © 2014

See weather overviewHow to use our weather pages